Temperature
23 22 21 20 20 19 19 19 19 19 19 18 18 18 18 18 18 18 18 18 18 18 18 18 18 18 18 17 17 17 17 17 17 17 17 17 17 17 17 17 17 17 16
23 22 21 20 20 20 20 19 19 19 19 19 19 18 18 18 18 18 18 18 18 18 18 18 18 18 18 17 17 17 17 17 17 17 17 17 17 17 17 16 16 16 16
24 23 22 21 21 20 20 20 20 19 19 19 18 18 18 18 18 18 18 18 18 18 18 18 18 18 17 17 17 17 17 17 17 17 17 18 18 17 16 16 16 16 16
24 24 22 22 21 21 21 20 20 20 20 19 19 18 18 18 18 18 18 18 18 18 18 18 18 18 18 17 17 17 17 17 17 17 17 17 17 17 17 16 16 16 16
25 24 23 22 22 21 21 20 20 20 20 20 19 19 18 18 18 18 18 18 18 18 18 18 18 18 17 17 17 17 17 17 17 17 17 17 17 17 17 16 16 15 15
26 24 24 22 22 21 21 21 20 20 20 20 20 19 19 19 18 18 18 18 18 18 18 18 18 18 18 17 17 17 17 17 17 17 17 17 17 17 17 16 16 15 15
26 25 24 23 22 22 21 21 21 21 20 20 20 19 19 19 18 18 18 18 18 18 18 17 18 17 17 17 17 17 17 17 17 17 17 17 17 17 16 16 16 15 15
26 25 24 23 23 22 22 21 21 21 21 20 20 19 19 18 18 18 18 18 18 18 18 17 17 17 17 17 17 17 17 17 17 17 17 17 16 16 16 16 16 15 15
26 25 24 23 23 22 22 21 21 21 21 20 20 19 19 19 18 18 18 18 18 17 17 17 17 17 17 17 17 17 17 17 17 17 17 16 16 16 16 16 16 16 15
26 25 24 23 23 22 22 21 21 21 21 20 20 19 19 19 18 18 18 18 18 17 17 17 17 17 17 17 17 16 16 17 17 16 17 16 16 16 16 15 15 15 15
26 25 24 23 22 22 21 21 21 20 20 20 20 19 19 19 18 18 18 18 17 17 17 17 17 16 16 16 16 16 16 16 16 16 16 16 16 16 15 15 15 15 15
26 25 24 23 22 22 21 21 21 20 20 20 20 19 19 18 18 18 18 17 17 17 17 17 16 16 16 16 16 16 16 16 16 16 16 16 15 15 15 15 15 15 14
25 24 23 22 22 22 21 21 20 20 20 20 19 19 19 18 18 18 18 17 17 17 16 16 16 16 16 16 16 16 16 16 16 16 15 15 15 15 15 14 14 14 14
24 23 22 22 22 21 21 21 20 20 20 20 19 19 19 18 18 18 18 17 17 16 16 16 16 16 16 16 15 15 15 15 15 15 15 15 15 14 14 14 14 14 13
24 23 22 22 21 21 21 21 20 20 20 19 19 19 18 18 18 18 17 17 17 16 16 16 16 15 15 15 15 15 15 15 15 15 14 14 14 14 14 14 13 13 13
24 23 22 22 22 21 21 21 21 20 20 19 19 19 18 18 18 17 17 17 17 16 16 16 15 15 15 15 15 15 14 14 14 14 14 14 14 14 14 13 13 13 13
24 23 22 22 22 22 21 21 21 20 19 19 19 18 18 18 18 17 17 17 17 16 16 16 15 15 15 15 15 15 14 14 14 14 14 14 14 13 13 13 13 13 13
23 22 22 22 21 21 21 21 20 20 19 19 19 18 18 18 18 17 17 17 16 16 16 16 15 15 15 15 15 15 14 14 14 14 13 13 13 13 13 12 12 12 12
23 22 22 22 21 21 21 20 20 19 19 19 18 18 18 18 17 17 17 17 16 16 16 15 15 15 15 15 15 14 14 14 14 13 13 13 13 13 13 12 12 12 12
22 22 22 21 21 21 21 20 20 19 19 19 18 18 18 18 17 17 17 16 16 16 15 15 15 15 15 15 15 14 14 13 13 13 13 13 13 13 13 12 12 11 11
22 22 21 21 21 21 21 20 20 19 19 19 18 18 18 18 17 17 17 16 16 16 15 15 15 14 14 14 14 14 14 13 13 13 13 13 13 12 12 12 11 11 11
21 21 21 21 21 20 20 20 20 19 19 18 18 18 17 17 17 16 16 16 15 15 15 15 14 14 14 14 14 14 14 13 13 12 12 12 12 12 12 11 11 11 11
21 20 20 20 20 20 20 19 19 19 18 18 18 17 17 17 16 16 16 15 15 15 14 14 14 14 14 14 14 14 13 13 12 12 12 12 12 11 11 11 11 11 11
20 20 20 20 19 19 19 19 19 19 18 18 18 17 17 16 16 16 15 15 15 15 14 14 14 14 14 13 13 13 13 13 12 12 12 11 11 11 11 11 11 10 10
20 19 19 19 19 19 19 18 18 18 18 17 17 17 16 16 16 15 15 15 15 15 14 14 14 14 13 13 13 13 13 12 12 12 11 11 11 11 11 11 10 10 10
19 19 19 19 19 19 18 18 18 18 17 17 17 16 16 16 15 15 15 15 15 14 14 14 14 14 13 13 13 13 13 12 12 12 12 11 11 11 11 11 10 10 10
Wind_Speed
10 10 9 9 8 8 8 8 7 6 5 4 3 3 2 2 2 2 2 3 3 3 3 3 2 3 2 2 2 2 3 3 2 2 1 1 1 1 1 1 0 1 1
11 11 10 10 10 9 9 9 8 7 6 4 3 2 2 3 2 2 2 2 2 3 3 3 4 3 3 3 3 3 3 3 3 2 2 2 2 1 1 1 1 1 1
13 13 12 11 11 10 10 8 8 8 7 6 4 3 3 3 3 3 2 2 2 2 3 3 4 4 4 3 4 4 5 4 3 3 3 2 1 1 2 1 1 1 1
13 13 13 12 12 11 10 9 8 8 7 6 6 5 4 4 3 3 2 3 3 3 3 3 4 4 4 3 4 4 4 4 4 3 4 4 2 2 1 2 2 1 1
14 13 13 12 11 11 10 9 9 8 8 7 6 6 5 4 3 3 3 3 2 3 3 3 3 4 4 3 4 3 4 4 4 3 3 3 3 4 3 2 1 1 0
13 13 12 11 11 10 10 9 9 8 8 8 7 7 6 5 4 4 3 3 2 2 2 3 3 3 3 3 3 3 3 3 3 4 3 3 3 3 3 3 3 1 1
13 13 13 12 12 12 11 10 9 8 8 8 7 7 6 6 5 5 4 3 2 2 2 2 2 2 2 3 3 2 3 3 3 3 3 3 3 3 3 3 3 2 1
12 12 13 12 12 12 11 10 9 8 8 7 7 6 6 5 4 4 3 2 2 2 1 1 1 2 2 2 2 2 2 2 2 2 2 2 2 2 3 3 3 2 2
10 11 12 12 12 11 11 10 10 8 7 7 6 6 5 4 3 2 3 2 1 1 0 1 1 1 1 1 2 2 2 2 2 2 1 2 1 1 2 3 4 3 3
9 10 11 11 10 10 10 9 9 8 7 7 6 5 5 4 3 2 1 1 1 0 0 0 1 0 0 1 1 1 1 1 1 1 2 2 1 1 2 2 2 3 3
9 10 10 11 10 10 10 10 9 8 8 7 6 5 5 4 4 3 2 1 1 1 1 0 0 1 1 1 1 1 1 1 2 2 1 1 2 1 0 0 1 1 2
8 9 10 10 11 10 10 10 9 9 8 7 7 6 5 5 4 3 2 2 2 1 1 1 1 1 1 1 1 1 2 1 1 1 1 1 0 1 1 1 1 1 1
8 9 9 10 10 10 10 10 9 9 8 8 7 7 6 5 5 4 3 2 2 2 2 1 1 1 1 1 1 1 1 2 2 2 2 1 1 1 1 1 1 1 2
9 9 9 9 9 9 9 9 9 9 9 8 8 7 6 6 5 4 4 3 3 3 2 2 2 1 1 1 1 1 1 2 2 2 2 2 2 1 2 1 1 1 2
9 9 9 9 9 9 9 9 9 9 9 9 8 7 7 7 6 5 5 4 3 3 3 2 2 2 2 2 1 1 1 2 2 2 2 3 4 5 3 2 1 1 2
9 9 9 9 9 9 9 9 9 10 10 9 9 8 8 7 7 6 5 5 4 3 3 3 2 2 2 4 4 1 2 2 2 3 3 4 4 5 5 5 5 3 1
8 9 9 9 9 9 9 10 10 10 10 10 9 9 8 8 7 7 6 5 5 4 3 3 2 2 3 4 3 3 2 3 3 3 2 2 4 4 4 5 5 4 4
9 9 9 9 9 9 9 9 10 11 10 10 9 9 8 8 7 7 6 5 4 4 3 3 3 3 3 3 2 0 3 3 3 2 2 2 3 3 3 4 4 4 3
8 8 8 9 9 9 10 10 10 11 11 10 9 9 9 9 8 7 6 5 5 4 4 3 3 3 3 3 1 1 3 3 3 3 3 2 3 4 2 4 4 4 4
7 7 8 8 9 9 10 11 10 11 11 10 10 9 9 9 8 8 7 6 5 5 4 4 3 3 3 3 1 3 3 3 3 3 3 5 4 4 1 3 3 3 3
8 8 7 7 8 9 10 10 10 10 10 10 10 9 9 9 8 8 7 6 6 5 4 4 4 3 3 4 2 2 1 2 2 3 3 4 6 4 2 1 2 2 2
8 8 7 7 7 8 10 10 10 9 9 9 9 9 9 8 8 8 7 7 6 6 6 5 4 4 4 3 4 2 1 2 1 1 2 4 6 4 1 1 3 1 2
7 7 7 7 6 7 8 9 8 9 9 9 9 9 9 8 8 9 8 8 7 6 6 6 5 4 4 5 6 5 2 0 0 2 6 5 5 4 3 3 2 3 2
7 7 7 7 6 6 7 7 8 9 9 9 9 9 9 9 8 7 7 7 7 6 6 5 5 5 5 4 4 4 4 5 3 3 5 6 5 2 2 3 3 1 0
7 7 7 7 7 7 7 7 8 8 9 9 8 9 8 8 8 7 5 6 4 3 4 5 5 4 4 4 3 3 4 4 3 3 3 3 3 3 2 2 2 2 2
6 7 7 6 7 7 7 7 8 8 9 9 9 8 8 8 7 7 6 2 2 4 2 1 2 2 3 7 5 3 2 2 3 4 3 3 3 3 3 3 3 3 2
Wind_Direction
186 182 184 185 183 185 188 191 195 191 202 209 218 219 218 223 234 229 224 247 258 248 255 274 253 264 257 258 249 248 227 223 207 218 222 203 207 185 206 208 181 127 103
189 187 188 190 191 190 195 196 198 198 206 207 220 234 258 251 245 259 231 250 256 257 246 263 268 258 259 254 252 247 247 229 214 233 241 227 202 155 116 132 132 83 101
194 191 192 195 194 196 198 198 199 198 206 210 213 215 220 244 239 242 235 250 260 264 289 277 276 275 265 249 242 240 240 243 231 232 252 254 221 162 125 90 88 93 74
198 196 195 195 197 197 196 197 197 200 203 208 217 221 233 245 250 252 251 249 250 259 266 274 275 275 274 263 252 240 247 247 247 234 241 258 266 249 193 150 125 110 94
199 198 197 195 195 196 195 192 193 198 200 206 213 221 234 238 235 237 241 254 248 257 264 264 273 274 278 279 278 268 259 252 255 256 251 245 233 234 239 227 189 156 171
197 196 194 190 192 192 193 190 189 196 198 202 208 217 228 238 247 245 243 243 241 251 258 256 263 266 276 275 268 271 260 268 268 264 253 246 249 238 232 224 210 213 225
193 192 191 190 190 190 188 188 188 192 195 198 206 211 221 227 234 244 240 254 259 257 259 263 261 266 265 273 273 265 277 265 260 261 259 258 260 259 247 221 221 237 247
187 189 189 188 188 187 186 186 185 188 191 195 202 208 215 228 232 232 250 245 262 266 266 275 263 264 267 277 284 282 280 278 270 275 280 275 275 261 240 232 220 230 239
180 183 184 184 184 181 182 182 180 182 184 188 192 196 202 214 223 214 233 247 240 232 228 272 269 258 261 279 282 301 307 306 297 293 280 277 276 259 247 224 219 226 237
173 176 178 179 179 177 174 173 171 171 174 177 183 175 178 179 186 194 176 186 195 183 167 289 295 295 337 321 307 313 318 328 327 327 337 312 295 281 254 240 239 237 232
169 170 171 171 170 169 167 167 167 167 167 169 168 169 163 159 155 151 151 154 144 127 103 44 52 45 25 3 333 332 333 343 347 354 4 342 321 308 289 220 234 236 195
164 162 162 164 165 166 167 166 167 167 165 163 160 159 155 151 149 144 138 127 122 124 126 108 93 85 61 12 356 348 11 22 14 8 21 15 51 91 90 101 111 114 144
158 156 157 160 165 166 167 166 167 165 163 160 157 154 153 152 151 148 142 139 136 131 120 108 93 74 64 46 34 31 39 47 44 36 46 51 64 80 87 101 115 137 142
159 159 159 161 163 166 167 166 166 164 162 160 159 156 157 156 152 148 145 144 144 138 129 118 101 83 67 59 55 60 65 67 64 54 53 52 61 81 98 112 126 131 138
164 164 164 161 162 163 166 168 167 166 165 163 160 158 154 151 149 148 146 144 143 139 130 118 105 92 82 56 58 97 96 89 82 72 70 64 59 50 50 51 85 141 158
168 167 166 163 164 164 165 166 168 165 165 166 163 157 156 153 153 154 153 150 146 137 129 120 111 93 68 46 29 19 91 90 90 85 83 92 90 89 81 64 54 47 123
168 169 170 168 167 167 167 167 167 164 165 166 163 162 160 158 160 160 155 152 150 146 139 131 123 107 77 59 46 13 87 93 84 83 84 81 90 107 101 101 106 78 56
168 168 171 169 168 166 166 166 162 165 167 166 166 164 163 161 162 161 158 157 158 156 149 142 136 126 101 89 97 62 116 99 94 92 92 95 102 96 107 115 108 102 87
167 166 168 167 165 166 165 164 164 167 169 170 170 169 169 165 167 167 162 161 162 159 157 145 137 126 109 88 99 240 133 115 102 94 85 96 99 71 66 119 114 107 105
157 158 160 161 163 166 167 167 169 171 174 173 172 170 171 170 171 168 165 163 165 164 158 141 137 132 123 106 113 271 149 129 124 116 104 82 80 83 26 128 124 120 114
158 155 155 156 161 166 172 175 175 178 176 171 169 170 172 173 171 167 167 169 172 165 156 148 147 141 126 134 133 307 160 140 138 125 117 98 93 93 33 342 114 116 156
159 155 152 152 156 167 173 177 179 176 171 170 171 173 173 173 169 169 171 176 177 170 166 164 169 158 150 142 148 151 10 340 132 118 108 105 114 112 109 83 89 126 239
162 161 156 154 158 170 177 177 172 169 168 171 174 175 175 173 173 176 177 182 189 189 181 181 182 171 160 152 154 159 151 327 157 85 74 102 139 151 143 125 149 203 209
168 166 164 162 166 173 175 172 168 169 172 176 177 175 177 177 176 182 187 193 191 192 191 191 190 178 171 170 168 174 171 172 175 148 125 138 156 183 123 149 176 210 224
172 171 171 169 169 171 171 167 164 170 176 176 178 181 184 179 178 185 189 199 192 196 204 198 195 190 189 162 157 201 191 192 172 166 171 174 172 183 180 183 187 202 192
171 174 174 170 168 169 171 172 170 174 180 182 183 186 186 182 185 182 179 108 150 137 154 310 272 186 134 140 159 177 163 137 161 204 199 199 205 205 201 203 200 203 210
Height
1555 1557 1558 1560 1561 1562 1563 1564 1565 1566 1567 1568 1569 1570 1570 1571 1571 1571 1571 1571 1571 1571 1570 1570 1569 1569 1569 1568 1569 1568 1568 1568 1568 1568 1567 1567 1567 1567 1566 1566 1566 1566 1565
1552 1555 1556 1558 1559 1560 1561 1563 1564 1565 1566 1567 1568 1569 1569 1570 1570 1570 1570 1570 1570 1569 1570 1568 1568 1568 1567 1567 1566 1566 1566 1566 1566 1566 1566 1566 1566 1565 1565 1564 1564 1564 1564
1549 1552 1554 1556 1557 1559 1560 1561 1562 1564 1565 1566 1567 1568 1568 1568 1569 1569 1569 1568 1568 1568 1567 1567 1566 1566 1566 1566 1565 1564 1564 1565 1564 1564 1564 1564 1563 1563 1564 1563 1562 1562 1562
1545 1548 1551 1553 1555 1556 1558 1559 1561 1562 1563 1564 1565 1566 1566 1567 1567 1567 1567 1567 1566 1566 1565 1565 1564 1564 1564 1563 1563 1563 1563 1562 1562 1562 1561 1562 1561 1562 1562 1562 1561 1561 1560
1541 1545 1547 1550 1552 1554 1556 1557 1559 1560 1561 1562 1563 1563 1565 1566 1566 1566 1565 1565 1565 1564 1563 1563 1563 1562 1562 1561 1561 1561 1560 1560 1560 1560 1559 1559 1559 1559 1560 1560 1561 1560 1560
1538 1541 1544 1547 1549 1552 1554 1555 1556 1557 1558 1559 1560 1561 1562 1563 1563 1563 1564 1563 1563 1562 1561 1561 1560 1560 1560 1559 1559 1558 1558 1558 1557 1557 1557 1557 1557 1557 1557 1557 1558 1558 1558
1534 1538 1541 1543 1546 1548 1550 1552 1553 1555 1556 1557 1558 1559 1560 1560 1561 1561 1561 1561 1561 1561 1559 1559 1558 1558 1557 1557 1557 1556 1556 1556 1555 1555 1555 1555 1555 1555 1555 1555 1555 1556 1556
1531 1534 1537 1540 1543 1545 1547 1549 1551 1552 1554 1555 1555 1556 1557 1558 1559 1559 1559 1559 1559 1559 1558 1557 1556 1556 1555 1555 1555 1555 1554 1554 1553 1553 1552 1552 1552 1552 1552 1553 1553 1553 1554
1528 1531 1534 1537 1540 1542 1544 1547 1548 1550 1551 1552 1553 1554 1555 1555 1556 1557 1557 1557 1557 1556 1556 1555 1555 1554 1554 1553 1553 1553 1552 1552 1551 1551 1551 1550 1550 1550 1550 1550 1551 1552 1551
1526 1529 1532 1535 1537 1540 1542 1544 1546 1547 1548 1550 1551 1552 1552 1553 1554 1555 1555 1555 1555 1554 1554 1553 1553 1552 1552 1551 1551 1551 1550 1550 1549 1549 1548 1548 1548 1548 1548 1548 1548 1548 1549
1524 1527 1530 1532 1535 1538 1540 1541 1543 1545 1546 1548 1549 1550 1550 1551 1552 1553 1553 1553 1553 1553 1552 1551 1551 1551 1550 1550 1550 1549 1549 1548 1548 1547 1547 1546 1546 1546 1546 1546 1546 1546 1546
1523 1525 1528 1531 1533 1535 1537 1539 1541 1543 1544 1546 1547 1548 1549 1550 1550 1551 1551 1552 1552 1551 1551 1550 1550 1550 1550 1549 1548 1548 1548 1547 1547 1546 1546 1545 1545 1544 1544 1544 1544 1544 1544
1522 1524 1527 1529 1531 1533 1535 1538 1539 1541 1543 1544 1546 1547 1548 1549 1549 1550 1550 1551 1551 1551 1550 1550 1549 1549 1549 1548 1548 1548 1547 1547 1546 1545 1545 1544 1544 1543 1543 1543 1543 1543 1544
1521 1523 1525 1527 1529 1532 1534 1536 1538 1540 1541 1543 1544 1545 1547 1548 1549 1549 1550 1550 1550 1550 1550 1549 1549 1549 1548 1548 1548 1547 1547 1546 1546 1545 1544 1544 1543 1543 1543 1543 1543 1543 1543
1519 1521 1523 1525 1528 1530 1532 1534 1536 1538 1539 1541 1542 1544 1545 1546 1547 1548 1549 1549 1549 1550 1549 1549 1549 1548 1548 1548 1547 1547 1547 1546 1546 1545 1544 1543 1543 1542 1542 1543 1542 1542 1543
1517 1519 1522 1524 1526 1528 1530 1532 1534 1535 1537 1539 1541 1542 1543 1545 1546 1547 1548 1548 1549 1549 1549 1548 1548 1548 1548 1547 1547 1547 1546 1546 1546 1545 1544 1544 1543 1542 1542 1541 1541 1542 1542
1515 1518 1520 1522 1523 1526 1528 1530 1532 1534 1535 1537 1539 1541 1542 1544 1545 1546 1547 1547 1547 1548 1548 1548 1548 1547 1547 1546 1546 1546 1546 1546 1545 1545 1545 1544 1543 1542 1541 1541 1541 1541 1541
1513 1515 1518 1520 1522 1524 1526 1528 1530 1532 1534 1536 1538 1539 1540 1542 1544 1545 1545 1546 1546 1547 1547 1547 1547 1547 1546 1546 1546 1546 1546 1545 1545 1545 1544 1544 1543 1542 1541 1541 1541 1540 1540
1511 1513 1515 1517 1519 1521 1524 1526 1528 1530 1532 1533 1535 1537 1538 1540 1542 1543 1544 1545 1545 1546 1546 1546 1546 1546 1546 1546 1545 1545 1546 1545 1545 1545 1544 1543 1543 1542 1541 1541 1541 1540 1540
1509 1511 1513 1515 1517 1519 1521 1523 1525 1527 1529 1531 1533 1534 1536 1538 1539 1541 1542 1543 1544 1545 1545 1545 1545 1545 1545 1545 1545 1545 1546 1545 1545 1545 1544 1543 1543 1542 1541 1541 1540 1540 1540
1507 1509 1511 1513 1514 1516 1519 1521 1523 1524 1527 1529 1530 1532 1534 1535 1537 1538 1540 1541 1542 1543 1543 1544 1544 1544 1545 1545 1545 1545 1545 1545 1545 1545 1544 1543 1542 1541 1541 1540 1540 1539 1539
1505 1507 1508 1510 1512 1514 1516 1518 1520 1522 1524 1526 1528 1529 1531 1533 1535 1536 1537 1539 1540 1541 1542 1542 1543 1544 1543 1544 1544 1544 1544 1544 1545 1545 1544 1543 1542 1541 1541 1540 1539 1539 1539
1503 1505 1506 1508 1510 1512 1514 1516 1517 1520 1521 1523 1525 1527 1529 1530 1532 1534 1535 1536 1538 1539 1540 1541 1542 1543 1543 1542 1543 1543 1543 1543 1543 1544 1543 1543 1542 1542 1541 1540 1539 1539 1539
1501 1502 1504 1506 1507 1509 1511 1513 1514 1516 1519 1521 1522 1524 1526 1528 1530 1531 1533 1534 1536 1537 1538 1540 1541 1541 1541 1541 1541 1541 1542 1542 1542 1542 1542 1542 1542 1541 1541 1540 1539 1539 1539
1499 1500 1502 1503 1504 1506 1508 1510 1511 1513 1516 1518 1519 1521 1524 1525 1527 1528 1530 1531 1532 1534 1535 1537 1538 1539 1539 1539 1539 1540 1540 1540 1541 1541 1541 1541 1541 1541 1540 1540 1539 1539 1539
1496 1498 1499 1501 1502 1504 1505 1507 1508 1510 1513 1514 1516 1518 1521 1522 1524 1525 1527 1528 1529 1530 1532 1533 1534 1535 1536 1536 1537 1537 1538 1538 1538 1539 1540 1540 1540 1540 1539 1539 1538 1538 1537